sat.trackr.live / text

‹ back to catalog

STARLINK-30904

NORAD 58364 · 2023-177P

PAYLOAD ACTIVE UNKNOWN

§ Identity

Operator
Country
US
Launch date
2023-11-18
Launch site
AFETR
Launch vehicle
Mass (kg)
RCS (m²)

Purposes: comms

External: N2YO · Heavens-Above · Gunter

§ Orbital elements

Epoch: 2026-09-20T08:17:42.552096Z

Period
95.21 min
Inclination
42.9996°
Eccentricity
0.0012680
Mean motion
15.12386274 rev/d
Perigee alt
520.2 km
Apogee alt
537.7 km
Semi-major
6,907.1 km
B*
9.4190e-4
RAAN
1.4403°
Arg perigee
321.5705°
Mean anomaly
38.4237°
Rev number
15,764

§ Raw data

STARLINK-309041 58364U 23177P   26263.34563139  .00016479  00000+0  94190-3 0  99912 58364  42.9996   1.4403 0012680 321.5705  38.4237 15.12386274157648

JSON: /api/v1/satellites/58364 · /tle

For live sub-satellite position, see the globe view (requires WebGL).

§ Visibility from observer

Set your observer location to see the next 7 days of passes ≥ 10°. The values pass through the URL so the page stays shareable.

No JS? Fill the form by hand. The geolocation button needs JavaScript.